Tracking 29892 objects as of 21-Nov-2024
HD Live streaming from Space Station
objects crossing your sky now

STARLINK-30106

Track STARLINK-30106 now!
10-day predictions
STARLINK-30106 is classified as:


NORAD ID: 56288
Int'l Code: 2023-056C
Perigee: 564.4 km
Apogee: 568.2 km
Inclination: 43.0 °
Period: 95.8 minutes
Semi major axis: 6937 km
RCS: Unknown
Launch date: April 19, 2023
Source: United States (US)
Launch site: AIR FORCE EASTERN TEST RANGE (AFETR)
Your satellite tracking list
Your tracking list is empty




NASA's NSSDC Master Catalog

Two Line Element Set (TLE):
1 56288U 23056C   24325.94677801 -.00001899  00000-0 -12559-3 0  9997
2 56288  43.0045 264.2206 0002770 288.4467  71.6074 15.02516688 88164
Source of the keplerian elements: AFSPC